When you browse on this site, cookies collect data to enhance your experience and personalize the content and advertising you see.
Visit our Privacy Policy to learn more. By continuing to use the site, you agree to this use of cookies and data.

Hourly Weather Hermosillo

Today, 10 August, Monday

Time Temperature Precipitation Wind Pressure Humidity
00:00 +35°C° 0 mm 3 mps 740 mmHg 52%
01:00 +34°C° 0 mm 2 mps 740 mmHg 54%
02:00 +32°C° 0 mm 2 mps 740 mmHg 57%
03:00 +32°C° 0 mm 1 mps 740 mmHg 59%
04:00 +32°C° 0 mm 1 mps 740 mmHg 61%
05:00 +31°C° 0 mm 1 mps 740 mmHg 63%
06:00 +32°C° 0 mm 1 mps 740 mmHg 62%
07:00 +32°C° 0 mm 2 mps 741 mmHg 61%
08:00 +33°C° 0 mm 3 mps 741 mmHg 60%
09:00 +35°C° 0 mm 2 mps 741 mmHg 57%
10:00 +36°C° 0 mm 2 mps 741 mmHg 53%
11:00 +37°C° 0 mm 2 mps 742 mmHg 50%
12:00 +38°C° 0 mm 2 mps 741 mmHg 45%
13:00 +39°C° 0 mm 3 mps 741 mmHg 41%
14:00 +42°C° 0 mm 3 mps 740 mmHg 37%
15:00 +42°C° 0 mm 4 mps 740 mmHg 37%
16:00 +42°C° 0 mm 4 mps 739 mmHg 37%
17:00 +42°C° 0 mm 5 mps 739 mmHg 38%
18:00 +40°C° 0 mm 5 mps 739 mmHg 42%
19:00 +38°C° 0 mm 4 mps 740 mmHg 46%
20:00 +37°C° 0 mm 4 mps 740 mmHg 50%
21:00 +36°C° 0.6 mm 3 mps 740 mmHg 55%
22:00 +35°C° 0.6 mm 2 mps 741 mmHg 59%
23:00 +33°C° 0.6 mm 1 mps 741 mmHg 64%

Tomorrow, 11 August, Tuesday

Time Temperature Precipitation Wind Pressure Humidity
00:00 +33°C° 0.1 mm 1 mps 741 mmHg 65%
01:00 +32°C° 0.1 mm 1 mps 740 mmHg 66%
02:00 +32°C° 0.1 mm 1 mps 740 mmHg 68%
03:00 +32°C° 0 mm 1 mps 740 mmHg 68%
04:00 +32°C° 0 mm 1 mps 740 mmHg 68%
05:00 +32°C° 0 mm 1 mps 739 mmHg 68%
06:00 +32°C° 0 mm 1 mps 740 mmHg 65%
07:00 +32°C° 0 mm 1 mps 740 mmHg 63%
08:00 +33°C° 0 mm 1 mps 740 mmHg 60%
09:00 +34°C° 0 mm 1 mps 740 mmHg 56%
10:00 +35°C° 0 mm 1 mps 740 mmHg 51%
11:00 +37°C° 0 mm 1 mps 740 mmHg 47%
12:00 +39°C° 0 mm 1 mps 740 mmHg 43%
13:00 +40°C° 0 mm 1 mps 739 mmHg 38%
14:00 +41°C° 0 mm 1 mps 739 mmHg 34%
15:00 +41°C° 0 mm 2 mps 738 mmHg 33%
16:00 +42°C° 0 mm 2 mps 738 mmHg 32%
17:00 +43°C° 0 mm 3 mps 737 mmHg 31%
18:00 +41°C° 0 mm 4 mps 738 mmHg 36%
19:00 +40°C° 0 mm 4 mps 738 mmHg 41%
20:00 +37°C° 0 mm 5 mps 738 mmHg 46%
21:00 +37°C° 0.5 mm 5 mps 739 mmHg 49%
22:00 +36°C° 0.5 mm 4 mps 739 mmHg 51%
23:00 +35°C° 0.5 mm 4 mps 740 mmHg 53%

Day after tomorrow, 12 August, Wednesday

Time Temperature Precipitation Wind Pressure Humidity
00:00 +35°C° 0.1 mm 3 mps 739 mmHg 55%
01:00 +35°C° 0.1 mm 2 mps 739 mmHg 56%
02:00 +33°C° 0.1 mm 1 mps 738 mmHg 58%
03:00 +33°C° 0 mm 1 mps 738 mmHg 60%
04:00 +33°C° 0 mm 1 mps 738 mmHg 61%
05:00 +30°C° 0 mm 0 mps 738 mmHg 62%
06:00 +31°C° 0 mm 0 mps 738 mmHg 59%
07:00 +31°C° 0 mm 0 mps 738 mmHg 56%
08:00 +32°C° 0 mm 0 mps 739 mmHg 53%
09:00 +33°C° 0 mm 0 mps 739 mmHg 49%
10:00 +37°C° 0 mm 1 mps 739 mmHg 44%
11:00 +39°C° 0 mm 1 mps 739 mmHg 40%
12:00 +40°C° 0 mm 1 mps 738 mmHg 36%
13:00 +42°C° 0 mm 1 mps 738 mmHg 32%
14:00 +43°C° 0 mm 1 mps 737 mmHg 28%
15:00 +43°C° 0 mm 2 mps 737 mmHg 26%
16:00 +45°C° 0 mm 2 mps 736 mmHg 25%
17:00 +45°C° 0 mm 2 mps 736 mmHg 23%
18:00 +44°C° 0 mm 3 mps 736 mmHg 27%
19:00 +42°C° 0 mm 4 mps 736 mmHg 30%
20:00 +41°C° 0 mm 4 mps 737 mmHg 34%
21:00 +40°C° 0 mm 4 mps 737 mmHg 35%
22:00 +39°C° 0 mm 3 mps 737 mmHg 36%
23:00 +38°C° 0 mm 3 mps 738 mmHg 37%

13 August, Thursday

Time Temperature Precipitation Wind Pressure Humidity
00:00 +38°C° 0 mm 2 mps 738 mmHg 38%
01:00 +37°C° 0 mm 2 mps 737 mmHg 40%
02:00 +37°C° 0 mm 2 mps 737 mmHg 41%
03:00 +36°C° 0 mm 2 mps 737 mmHg 42%
04:00 +35°C° 0 mm 3 mps 738 mmHg 44%
05:00 +35°C° 0 mm 3 mps 738 mmHg 45%
06:00 +35°C° 0 mm 4 mps 738 mmHg 47%
07:00 +35°C° 0 mm 4 mps 739 mmHg 48%
08:00 +35°C° 0 mm 5 mps 740 mmHg 49%
09:00 +36°C° 0 mm 4 mps 740 mmHg 45%
10:00 +38°C° 0 mm 4 mps 740 mmHg 41%
11:00 +39°C° 0 mm 3 mps 740 mmHg 37%
12:00 +40°C° 0 mm 3 mps 739 mmHg 34%
13:00 +41°C° 0 mm 2 mps 739 mmHg 32%
14:00 +42°C° 0 mm 2 mps 738 mmHg 29%
15:00 +43°C° 0 mm 3 mps 738 mmHg 29%
16:00 +43°C° 0 mm 3 mps 738 mmHg 28%
17:00 +44°C° 0 mm 4 mps 737 mmHg 27%
18:00 +42°C° 0 mm 4 mps 737 mmHg 33%
19:00 +40°C° 0 mm 5 mps 738 mmHg 39%
20:00 +37°C° 0 mm 5 mps 738 mmHg 45%
21:00 +36°C° 0 mm 4 mps 738 mmHg 48%
22:00 +36°C° 0 mm 3 mps 738 mmHg 51%
23:00 +35°C° 0 mm 2 mps 738 mmHg 54%

14 August, Friday

Time Temperature Precipitation Wind Pressure Humidity
00:00 +34°C° 0 mm 2 mps 738 mmHg 56%
01:00 +34°C° 0 mm 2 mps 738 mmHg 57%
02:00 +33°C° 0 mm 1 mps 738 mmHg 58%
03:00 +32°C° 0 mm 1 mps 738 mmHg 60%
04:00 +32°C° 0 mm 1 mps 738 mmHg 62%
05:00 +32°C° 0 mm 2 mps 738 mmHg 63%
06:00 +32°C° 0 mm 2 mps 739 mmHg 62%
07:00 +34°C° 0 mm 2 mps 739 mmHg 60%
08:00 +34°C° 0 mm 3 mps 740 mmHg 59%
09:00 +35°C° 0 mm 3 mps 740 mmHg 55%
10:00 +37°C° 0 mm 3 mps 740 mmHg 51%
11:00 +38°C° 0 mm 3 mps 740 mmHg 47%
12:00 +39°C° 0 mm 2 mps 739 mmHg 44%
13:00 +40°C° 0 mm 2 mps 739 mmHg 41%
14:00 +41°C° 0 mm 1 mps 738 mmHg 37%
15:00 +41°C° 0 mm 2 mps 738 mmHg 36%
16:00 +43°C° 0 mm 3 mps 737 mmHg 35%
17:00 +43°C° 0 mm 3 mps 736 mmHg 33%
18:00 +41°C° 0 mm 4 mps 737 mmHg 41%
19:00 +39°C° 0 mm 5 mps 737 mmHg 49%
20:00 +36°C° 0 mm 5 mps 737 mmHg 57%
21:00 +35°C° 0 mm 5 mps 737 mmHg 59%
22:00 +35°C° 0 mm 4 mps 738 mmHg 61%
23:00 +34°C° 0 mm 3 mps 738 mmHg 62%

15 August, Saturday

Time Temperature Precipitation Wind Pressure Humidity
00:00 +34°C° 0 mm 3 mps 738 mmHg 64%
01:00 +34°C° 0 mm 2 mps 738 mmHg 65%
02:00 +32°C° 0 mm 2 mps 738 mmHg 66%
03:00 +32°C° 0 mm 2 mps 738 mmHg 67%
04:00 +33°C° 0 mm 3 mps 738 mmHg 68%
05:00 +31°C° 0 mm 3 mps 738 mmHg 69%
06:00 +33°C° 0 mm 4 mps 739 mmHg 66%
07:00 +33°C° 0 mm 4 mps 740 mmHg 64%
08:00 +33°C° 0 mm 4 mps 740 mmHg 62%
09:00 +34°C° 0 mm 4 mps 740 mmHg 58%
10:00 +35°C° 0 mm 4 mps 740 mmHg 54%
11:00 +36°C° 0 mm 3 mps 740 mmHg 50%
12:00 +37°C° 0 mm 3 mps 740 mmHg 47%
13:00 +38°C° 0 mm 2 mps 739 mmHg 45%
14:00 +39°C° 0 mm 1 mps 739 mmHg 43%
15:00 +39°C° 0 mm 1 mps 738 mmHg 41%
16:00 +40°C° 0 mm 1 mps 738 mmHg 39%
17:00 +40°C° 0 mm 1 mps 737 mmHg 37%
18:00 +39°C° 0 mm 2 mps 737 mmHg 38%
19:00 +37°C° 0 mm 3 mps 737 mmHg 40%
20:00 +36°C° 0 mm 5 mps 737 mmHg 42%
21:00 +35°C° 0.1 mm 4 mps 738 mmHg 44%
22:00 +35°C° 0.1 mm 4 mps 738 mmHg 47%
23:00 +34°C° 0.1 mm 4 mps 739 mmHg 49%
Show more